User: anonymous   Login
Location: Unspecified
(0.0000°N, 0.0000°E)
Time: 00:13:54
(UTC+00:00)
Language:

Intelsat V F3 - Orbit

View from above orbital plane
View from above orbital plane
View from above satellite
View from above satellite

Ground track
Ground track

The orbit data is extracted from the following two-line orbital elements,

1 12994U 81119A   18111.76728852  .00000059  00000-0  00000+0 0  9995
2 12994  14.8332 351.8140 0018733 172.9690   1.2753  0.99466400 97121
Epoch (UTC): 21 April 2018 18:24:53
Eccentricity: 0.0018733
inclination: 14.8332°
perigee height: 35934 km
apogee height: 36093 km
right ascension of ascending node: 351.8140°
argument of perigee: 172.9690°
revolutions per day: 0.99466400
mean anomaly at epoch: 1.2753°
orbit number at epoch: 9712

The dashed part of the orbit path shows where the satellite is in the earth's shadow,  

DLR